Cloud_Cover
16 5 19 58 92 6 100 48 8 5 100 99 13 6 100 100 100 27 6 82 96 63 5 10 63 76 100 100 100 100 100 100 100 100 100 100 55 44 7 5 32 18 5 5
23 11 5 5 61 98 100 100 100 92 96 100 100 100 100 89 100 100 100 78 88 100 98 20 40 99 100 100 84 100 94 97 100 100 86 28 72 89 99 100 99 76 10 5
27 5 5 5 5 82 77 26 55 100 100 31 95 93 100 100 100 100 100 85 100 77 100 100 100 100 99 100 100 100 93 78 57 97 99 100 100 100 100 54 10 5 5 5
5 63 91 81 86 100 68 17 2 6 48 100 66 3 99 100 100 100 100 100 100 93 66 100 100 100 100 100 100 100 100 100 100 98 100 100 100 42 12 14 22 68 37 28
95 100 100 100 100 100 19 5 1 3 0 8 100 77 85 16 63 100 100 55 100 100 100 100 100 98 100 100 100 100 100 100 100 99 76 41 52 84 84 79 95 100 100 100
100 100 100 100 62 5 23 84 16 5 14 1 24 30 92 32 29 27 92 100 100 100 100 100 100 100 100 100 100 100 100 100 100 100 100 100 100 94 90 92 46 34 51 7
100 100 100 24 60 86 100 99 23 22 42 0 5 5 64 94 18 100 48 26 99 100 100 100 100 100 100 100 100 100 100 100 100 80 32 13 5 18 5 53 5 7 5 5
100 97 100 99 99 21 9 99 86 100 100 21 5 71 53 100 49 66 100 96 2 42 46 20 95 100 100 100 100 100 100 100 100 100 100 100 100 100 72 5 0 0 2 0
100 100 100 100 100 27 6 98 99 99 57 100 4 8 15 98 42 4 22 47 15 92 100 88 5 4 8 96 97 95 100 100 47 70 66 62 84 5 4 2 0 5 20 12
100 89 7 58 88 96 99 84 73 70 100 89 60 76 100 94 100 100 100 72 100 100 99 62 5 5 5 5 10 19 25 5 12 32 9 8 0 2 3 0 0 1 1 4
100 100 5 53 98 100 100 100 99 100 100 100 100 100 100 100 100 100 100 99 97 100 24 34 12 7 34 80 56 34 8 20 39 18 5 5 5 3 0 0 0 5 2 0
100 100 56 5 78 100 100 100 100 100 100 100 100 100 100 99 100 100 100 100 100 100 7 75 74 38 94 99 78 35 5 5 73 5 5 5 6 13 50 58 21 5 5 2
100 100 100 48 41 87 100 100 100 100 100 100 100 91 100 100 100 100 100 100 100 100 87 100 100 100 100 100 100 82 53 13 17 5 66 100 68 100 100 96 70 33 5 8
100 100 100 100 100 100 100 100 100 100 100 100 100 100 100 100 100 100 100 100 100 100 100 100 100 100 100 100 100 51 46 42 11 50 100 99 100 100 100 79 92 99 68 57
100 100 100 100 100 100 100 100 100 100 100 100 100 100 100 100 100 100 100 100 100 100 100 100 100 100 100 100 100 99 100 99 48 18 94 100 100 57 57 98 100 100 86 40
100 100 100 100 100 100 99 94 100 100 100 100 100 100 100 100 100 100 100 100 100 100 100 100 100 98 100 100 100 100 100 100 100 100 94 100 100 100 100 100 92 100 100 53
100 100 100 100 100 100 98 100 100 100 100 100 100 100 100 99 93 100 100 100 100 100 100 100 100 30 36 100 100 100 100 100 78 100 99 100 100 100 49 86 100 100 100 99
100 100 100 100 100 100 69 100 100 100 100 100 100 100 100 100 100 100 100 100 100 98 100 100 33 98 98 100 100 100 96 100 100 62 98 97 88 74 70 96 100 100 100 100
100 100 100 100 100 100 100 100 100 100 50 88 100 100 13 98 95 100 100 100 28 13 32 38 66 99 10 100 61 14 56 100 100 98 92 7 5 76 100 98 100 100 100 100
88 99 100 100 100 97 29 95 58 5 7 99 68 100 29 100 80 65 61 70 99 84 100 100 100 100 84 5 5 5 80 100 100 100 100 99 100 100 99 100 100 100 100 100
100 100 100 98 98 20 99 60 100 79 96 98 43 58 5 26 100 100 100 100 100 100 99 100 99 100 36 76 42 43 100 100 100 90 100 100 100 100 100 100 100 100 100 100
99 91 100 100 99 73 82 100 100 100 93 5 2 17 71 18 100 100 100 100 100 99 99 100 100 100 55 60 82 94 100 100 91 100 100 100 100 100 100 100 100 100 100 100
85 95 99 5 96 97 96 100 100 100 100 5 4 70 72 100 100 100 100 100 100 92 93 95 100 81 98 100 84 92 94 100 100 100 100 100 100 100 100 100 100 100 100 100
100 100 100 90 100 80 6 56 93 19 100 70 8 99 100 100 100 100 100 100 100 100 99 81 91 100 100 100 100 57 95 100 100 100 100 100 100 100 100 100 100 100 100 100
100 100 100 100 100 8 10 12 13 5 51 6 85 100 100 100 100 100 100 100 100 100 100 96 94 91 61 75 100 96 98 100 100 100 100 100 100 100 100 100 100 100 96 99
100 100 39 69 85 46 35 73 100 97 74 97 100 100 100 100 100 100 100 100 100 100 100 99 100 100 100 100 100 100 100 100 100 100 100 100 100 100 100 100 100 100 100 100